Regional Weather Roundup
Issued by NWS

Home | Current Version | Previous Version | Text Only | Print | Product List | Glossary On
Versions: 1 2 3 4 5 6 7 8 9 10 11 12 13 14 15 16 17 18 19 20 21 22 23 24 25 26 27 28 29 30 31 32 33 34 35 36 37 38 39 40 41 42 43 44 45 46 47 48 49 50
000
ASUS43 KDTX 270401
RWRMI
MICHIGAN HOURLY REGIONAL WEATHER ROUNDUP
NATIONAL WEATHER SERVICE DETROIT/PONTIAC MI
1200 AM EDT SAT MAY 27 2017

NOTE: "FAIR" INDICATES FEW OR NO CLOUDS BELOW 12,000 FEET WITH NO
SIGNIFICANT WEATHER AND/OR OBSTRUCTION TO VISIBILITY.

MIZ047>049-052>055-059>063-066>070-074>076-081>083-270500-
SOUTHEAST LOWER MICHIGAN

CITY           SKY/WX    TMP DP  RH WIND       PRES   REMARKS
ADRIAN         CLOUDY    61  58  90 CALM      29.90R
ALMA           CLOUDY    58  56  96 CALM      29.87F
ANN ARBOR      CLOUDY    59  57  93 CALM      29.88R
BAD AXE        CLOUDY    52  52  99 CALM      29.90S
CARO           PTCLDY    56  54  93 CALM      29.87F
DETROIT CITY   PTCLDY    59  56  89 SE3       29.88F
DETROIT        CLOUDY    62  56  80 S3        29.88S
FLINT          CLOUDY    59  54  83 CALM      29.88S
GROSSE ILE     CLOUDY    59  56  89 CALM      29.87S
HILLSDALE      RAIN      59  57  94 CALM      29.89R
HOWELL         CLOUDY    59  52  77 CALM      29.88R

CITY           SKY/WX    TMP DP  RH WIND       PRES   REMARKS
JACKSON        CLOUDY    62  55  77 SE3       29.88R
LAMBERTVILLE   CLOUDY    61  58  87 CALM      29.88R
LANSING        CLOUDY    64  52  64 NE3       29.87S
LAPEER         FAIR      52  51  97 CALM      29.88F FOG
MASON          CLOUDY    61  56  84 CALM      29.88S
MONROE         CLOUDY    61  56  83 CALM      29.87S
MT. CLEMENS    CLOUDY    57  57 100 CALM      29.87F
PONTIAC        CLOUDY    58  54  86 CALM      29.87F
PORT HOPE        N/A     50  48  93 S3        29.89R
PORT HURON       N/A     50  48  93 CALM      29.89F FOG
TRI CITIES     MOCLDY    58  54  86 SE5       29.87F
MIDLAND        FAIR      56  54  94 CALM      29.86F
TROY           CLOUDY    62  53  73 NE5       29.89S
SAGINAW HB     CLOUDY    57  52  82 CALM      29.87S
$$
MIZ043>046-050>051-056>058-064>065-071>073-077>080-270500-
SOUTHWEST LOWER MICHIGAN

CITY           SKY/WX    TMP DP  RH WIND       PRES   REMARKS
BATTLE CREEK   CLOUDY    61  58  90 SE5       29.87F
BENTON HARBOR  CLOUDY    58  55  90 E3        29.85F
BIG RAPIDS     PTCLDY    58  52  79 CALM      29.87S
COLDWATER      LGT RAIN  59  58  97 CALM      29.88S
FREMONT        FAIR      57  52  82 CALM      29.87S
HOLLAND        PTCLDY    56  54  93 CALM      29.87S
GRAND RAPIDS   MOCLDY    61  60  97 CALM      29.87S
IONIA          CLOUDY    61  56  82 CALM      29.86S
KALAMAZOO      LGT RAIN  62  58  86 S6        29.87F
LUDINGTON      PTCLDY    50  50 100 CALM      29.87S
MARSHALL       LGT RAIN  60  59  98 CALM      29.88R
MOUNT PLEASANT MOCLDY    60  54  81 CALM      29.86S
MUSKEGON       CLOUDY    58  55  90 CALM      29.87S
SOUTH HAVEN    CLOUDY    57  56  97 CALM      29.85F
$$
MIZ016>042-270500-
NORTHERN LOWER MICHIGAN

CITY           SKY/WX    TMP DP  RH WIND       PRES   REMARKS
ALPENA         CLEAR     49  48  97 CALM      29.89F
BEAVER ISLAND  CLOUDY    50  49  94 CALM      29.89R
BELLAIRE       MOCLDY    52  49  92 CALM      29.89R
CADILLAC       PTCLDY    51  50  97 CALM      29.88S
CHARLEVOIX     PTCLDY    52  51  96 CALM      29.91S
FRANKFORT      CLOUDY    48  45  89 CALM      29.87F
GAYLORD        CLEAR     56  50  80 NE3       29.89R
GRAYLING       CLEAR     53  52  97 CALM      29.89S
HARBOR SPRINGS CLEAR     49  49 100 NE3       29.89R
HOUGHTON LAKE  PTCLDY    56  53  90 CALM      29.88S
MANISTEE       PTCLDY    48  47  96 CALM      29.88R
OSCODA         CLEAR     50  48  92 CALM      29.88F
PELLSTON       CLEAR     50  47  89 CALM      29.89S
ROGERS CITY    CLEAR     57  52  82 S5        29.89S
TRAVERSE CITY  CLOUDY    52  49  89 CALM      29.87R
$$
MIZ007>008-015-270500-
EASTERN UPPER MICHIGAN

CITY           SKY/WX    TMP DP  RH WIND       PRES   REMARKS
KINROSS        CLEAR     56  50  80 SW3       29.87S
MACKINAC ISLAN CLEAR     52  49  91 SW6       29.88S
NEWBERRY       CLEAR     53  52  96 SW6       29.87S
S. S. MARIE    CLEAR     57  50  77 CALM      29.86F
MUNISING         N/A     62  51  67 VRB5      29.86R
$$
MIZ004>006-011>014-085-270500-
CENTRAL UPPER MICHIGAN

CITY           SKY/WX    TMP DP  RH WIND       PRES   REMARKS
ESCANABA       CLOUDY    56  54  93 CALM      29.86F
MENOMINEE      MOCLDY    58  51  78 CALM      29.86S
SAWYER-GWINN   CLOUDY    56  54  92 S5        29.87F
$$
MIZ001>003-009>011-084-270500-
WESTERN UPPER MICHIGAN

CITY           SKY/WX    TMP DP  RH WIND       PRES   REMARKS
IRON MOUNTAIN  CLOUDY    59  54  83 CALM      29.86R
HOUGHTON       CLOUDY    54  49  83 E3        29.81S
COPPER HARBOR    N/A     53  49  86 CALM      29.81S
IRONWOOD       CLOUDY    64  55  72 SW3       29.81R
$$

ABBREVIATIONS USED IN REMARKS
   TC - TEMPERATURE IN CELSIUS
  WCI - WIND CHILL INDEX
   HX - HEAT INDEX
  VSB - VISIBILITY





USA.gov is the U.S. government's official web portal to all federal, state and local government web resources and services.